Regional Weather Roundup
Issued by NWS

Home | Current Version | Previous Version | Text Only | Print | Product List | Glossary On
Versions: 1 2 3 4 5 6 7 8 9 10 11 12 13 14 15 16 17 18 19 20 21 22 23 24 25 26 27
000
ASUS44 KJAN 212310
RWRMS

MISSISSIPPI HOURLY WEATHER ROUNDUP
NATIONAL WEATHER SERVICE JACKSON MS
600 PM CDT SAT OCT 21 2017

NOTE: "FAIR: INDICATES FEW OR NO CLOUDS BELOW 12,000 FEET WITH NO
SIGNIFICANT WEATHER AND/OR OBSTRUCTIONS TO VISIBILITY.

MSZ001>002-007>008-010>013-018>021-025>028-034>036-220000-
NORTHWEST MISSISSIPPI

CITY           SKY/WX    TMP DP  RH WIND       PRES   REMARKS
BATESVILLE     FAIR      77  63  61 E6        30.07R
CLARKSDALE       N/A     81  64  57 SE10      30.03R
CLEVELAND      FAIR      82  66  58 SE13      30.00F
GREENWOOD      MOCLDY    80  68  66 SE10      30.04R
GREENVILLE     CLOUDY    82  64  54 SE12      29.99S
OLIVE BRANCH   PTCLDY   N/A N/A N/A SE9G18    30.04S
OXFORD         FAIR      73  63  68 SE8G15    30.09S
TUNICA           N/A    N/A N/A N/A SE9       30.04R
WINONA         FAIR      76  66  71 SE3       30.07R
$$

MSZ003>006-009-014>017-022>024-029>033-037>039-220000-
NORTHEAST MISSISSIPPI

CITY           SKY/WX    TMP DP  RH WIND       PRES   REMARKS
COLUMBUS AFB   CLOUDY    75  65  70 SE7       30.11R
CORINTH        FAIR      73  63  68 SE7       30.11F
GOLDN TRIANGLE CLOUDY    77  63  61 SE10      30.12R
STARKVILLE     FAIR      73  63  68 SE5       30.12R
TUPELO         PTCLDY    76  61  59 E8        30.10F
$$

MSZ040-058-220000-
CENTRAL MISSISSIPPI

CITY           SKY/WX    TMP DP  RH WIND       PRES   REMARKS
JACKSON INTL   CLOUDY    81  70  69 E10       30.05R
JACKSON HAWKNS LGT RAIN  75  74  96 SE7       30.05S
MADISON        MOCLDY    77  68  73 CALM      30.05R
MERIDIAN KEY   PTCLDY    77  67  71 E5        30.10R
MERIDIAN NAS   PTCLDY    77  66  68 SE6       30.11R
RAYMOND        MOCLDY    73  73 100 E7        30.04S FOG
VICKSBURG VKS  PTCLDY    81  70  69 E6        30.01S
$$

MSZ059>079-220000-
SOUTH MISSISSIPPI

CITY           SKY/WX    TMP DP  RH WIND       PRES   REMARKS
HATTIESBURG    CLOUDY    78  71  79 SE7       30.07S
LAUREL         FAIR      77  69  75 E7        30.07F
MCCOMB         CLOUDY    76  70  82 SE5       30.06R
NATCHEZ        LGT RAIN  75  72  88 S5        30.01S
PINE BELT      CLOUDY    78  71  79 SE6       30.08S
$$

MSZ080>082-220000-
COASTAL MISSISSIPPI

CITY           SKY/WX    TMP DP  RH WIND       PRES   REMARKS
BAY ST LOUIS   PTCLDY    77  73  88 SE12G17   30.05S
BILOXI         PTCLDY    79  72  80 E10G21    30.06S
PASCAGOULA     PTCLDY    79  69  71 SE12      30.08R
GULFPORT       CLOUDY    79  74  84 E15       30.06R
$$

LAZ007>009-015>016-023>026-220000-
NORTHEAST LOUISIANA

CITY           SKY/WX    TMP DP  RH WIND       PRES   REMARKS
BASTROP        FAIR      79  69  72 CALM      29.98S THUNDER
TALLULAH/VBURG CLOUDY    82  71  69 SE13      30.00S
VIDALIA          N/A    N/A N/A N/A MISG      29.99R
$$




USA.gov is the U.S. government's official web portal to all federal, state and local government web resources and services.